Notices

What's New in latest Release from April 7th, 2021:

- Updated Glossary, including Speed of Maximum Gust, and Total Hourly Precipitation

- Updated national and regional climate services offices contacts and prices information

- Addition of station inventory lists for 1981-2010, 1971-2000, and 1961-1990 Normals.

If you haven't already, please take our survey and provide feedback about our website: https://eccc.sondage-survey.ca/f/LanguageSelection.aspx?s=442ca660-fcf1-47c0-95a9-59707d6fd709

Hourly Data Report for March 23, 2003

TORONTO CITY
ONTARIO

43°40'00.000" N
79°24'00.000" W
112.50 m
6158355
71508
XTO

Download Data

Hourly Data (March 2003)
Hourly Data Report for March 23, 2003
TIME
LST
Temp Definition
°C
Dew Point Definition
°C
Rel Hum Definition
%
Precip. Amount Definition
mm

Wind Dir Definition
10's deg

Wind Spd Definition
km/h
Visibility Definition
km
Stn Press Definition
kPa
Hmdx Definition


Wind Chill Definition


Weather Definition


00:00 3.4 1.3 86   LegendMM LegendMM LegendMM 99.83     LegendNANA
01:00 3.5 1.4 86   LegendMM LegendMM LegendMM 99.84     LegendNANA
02:00 3.4 1.5 87   LegendMM LegendMM LegendMM 99.84     LegendNANA
03:00 3.8 1.5 85   LegendMM LegendMM LegendMM 99.83     LegendNANA
04:00 3.9 1.5 84   LegendMM LegendMM LegendMM 99.81     LegendNANA
05:00 4.0 1.6 84   LegendMM LegendMM LegendMM 99.84     LegendNANA
06:00 3.8 1.5 85   LegendMM LegendMM LegendMM 99.88     LegendNANA
07:00 4.2 1.9 85   LegendMM LegendMM LegendMM 99.94     LegendNANA
08:00 4.5 2.0 84   LegendMM LegendMM LegendMM 100.00     LegendNANA
09:00 5.1 2.3 82   LegendMM LegendMM LegendMM 100.06     LegendNANA
10:00 6.4 2.9 78   LegendMM LegendMM LegendMM 100.06     LegendNANA
11:00 7.5 2.4 70   LegendMM LegendMM LegendMM 100.06     LegendNANA
12:00 8.4 2.9 68   LegendMM LegendMM LegendMM 100.03     LegendNANA
13:00 8.6 3.5 70   LegendMM LegendMM LegendMM 100.02     LegendNANA
14:00 8.2 2.9 69   LegendMM LegendMM LegendMM 99.98     LegendNANA
15:00 7.6 2.9 72   LegendMM LegendMM LegendMM 99.99     LegendNANA
16:00 8.3 3.6 72   LegendMM LegendMM LegendMM 99.99     LegendNANA
17:00 7.9 2.8 70   LegendMM LegendMM LegendMM 100.03     LegendNANA
18:00 6.0 3.0 81   LegendMM LegendMM LegendMM 100.10     LegendNANA
19:00 5.5 2.9 83   LegendMM LegendMM LegendMM 100.14     LegendNANA
20:00 5.5 3.0 84   LegendMM LegendMM LegendMM 100.15     LegendNANA
21:00 6.0 2.8 80   LegendMM LegendMM LegendMM 100.20     LegendNANA
22:00 5.6 2.4 80   LegendMM LegendMM LegendMM 100.19     LegendNANA
23:00 5.4 2.2 80   LegendMM LegendMM LegendMM 100.18     LegendNANA

Notes on Data Quality.

Legend

  • E = Estimated
  • M = Missing
  • NA = Not Available*
  • [empty] = Indicates an unobserved value
Date modified: